Location: Meanaryar
(48.4161°N, 4.7315°W)
Time: 11:20:29
(UTC+00:00)

Spot 2 Rocket - Pass Details

Date: 18 September 2020
Orbit: 758 x 771 km, 98.6° (Epoch: 24 October)

Event Time Altitude Azimuth Distance (km) Brightness Sun altitude
Exits shadow 21:28:19 67° 336° (NNW) 822 3.7 -28.8°
Drops below altitude 10° 21:32:42 10° 345° (NNW) 2,299 6.6 -29.3°
Sets 21:35:01 0° 346° (NNW) 3,229 7.5 -29.6°
